Regional Weather Roundup
Issued by NWS Charleston, SC

Current Version | Previous Version | Graphics & Text | Print | Product List | Glossary On
Versions: 1 2 3 4 5 6 7 8 9 10 11 12 13 14 15 16 17 18 19 20 21 22 23 24 25 26 27 28 29 30 31 32 33 34 35 36 37 38 39 40 41 42 43 44 45 46 47 48 49 50
000
ASUS42 KCHS 231028
RWRCHS

REGIONAL WEATHER ROUNDUP
NATIONAL WEATHER SERVICE CHARLESTON SC
600 AM EDT SAT JUL 23 2016

NOTE: "FAIR" INDICATES FEW OR NO CLOUDS BELOW 12,000 FEET WITH NO
SIGNIFICANT WEATHER AND/OR OBSTRUCTIONS TO VISIBILITY.

NOT ALL STATIONS ARE QUALITY CONTROLLED. USE DATA WITH CAUTION...
ESPECIALLY DEWPOINT OBSERVATIONS.

SCZ027-030-031-034>040-042>050-231100-
...SOUTHEAST SOUTH CAROLINA...

CITY           SKY/WX    TMP DP  RH WIND       PRES   REMARKS
N CHARLESTON   PTCLDY    78  74  87 CALM      30.01R
WATERFRONT PRK   N/A     80  77  90 CALM      29.99R
MOUNT PLEASANT FAIR      75  75 100 CALM      30.02R FOG
JOHNS ISLAND   FAIR      77  75  94 CALM      30.02R
PINOPOLIS        N/A     79  77  94 SW6       29.94S
MONCKS CORNER  FAIR      72  70  94 CALM      30.02R
SUMMERVILLE    FAIR      73  73 100 CALM      30.03R
BEAUFORT MCAS  CLEAR     77  73  87 CALM      30.02R
BEAUFORT ARPT  FAIR      79  73  83 CALM      30.02R
HILTON HEAD IS NOT AVBL
WALTERBORO     SUNNY     77  77 100 CALM      30.03R
ALLENDALE      FAIR      75  73  94 CALM      30.01S

...SOUTHERN MIDLANDS AND PEE DEE...

CITY           SKY/WX    TMP DP  RH WIND       PRES   REMARKS
GEORGETOWN     PTSUNNY   73  72  94 W6        30.01F
KINGSTREE      FAIR      73  70  88 CALM      30.01S
ORANGEBURG     CLEAR     75  73  93 S3        30.02R
BARNWELL       NOT AVBL
AIKEN          FAIR      72  70  94 CALM      30.05S
MANNING        FAIR      75  73  94 CALM      30.01S
COLUMBIA       CLEAR     77  72  84 CALM      30.00S
SUMTER         CLEAR     75  73  94 S6        29.98S
FLORENCE       CLEAR     77  74  90 SW7       30.00R
MYRTLE BEACH   MOCLDY    81  66  61 SW6       30.02S
N MYRTLE BEACH CLOUDY    81  72  74 SW6       29.99S

$$

GAZ063-065-086>088-099>101-113>116-118-119-134>141-150-231100-
...SOUTHEAST GEORGIA...

CITY           SKY/WX    TMP DP  RH WIND       PRES   REMARKS
SAVANNAH ARPT  PTCLDY    76  72  87 CALM      30.02R
HUNTER AAF     CLEAR     74  74 100 CALM      30.00R
FORT STEWART   CLEAR     73  71  93 CALM      30.00R
STATESBORO     CLEAR     73  73  97 CALM      30.02R
SYLVANIA       NOT AVBL
CLAXTON        FAIR      71  71  99 CALM      30.02R

...CSRA...CENTRAL AND FAR SOUTHEAST GEORGIA...

CITY           SKY/WX    TMP DP  RH WIND       PRES   REMARKS
THOMSON        MOCLDY    76  74  95 CALM      30.06S
AUGUSTA-BUSH   CLEAR     72  71  97 CALM      30.01R
AUGUSTA-DANIEL CLEAR     78  71  79 CALM      30.02S
SWAINSBORO     FAIR      72  70  94 CALM      30.03R
VIDALIA        CLEAR     73  70  88 CALM      30.02S
EASTMAN        FAIR      74  74 100 S3        30.04S
HAZLEHURST     FAIR      74  74 100 CALM      30.01R
ALMA           CLEAR     73  72  96 S3        30.02R
WAYCROSS       CLEAR     75  75 100 CALM      30.03R
JESUP          FAIR      72  72 100 CALM      30.02S
BAXLEY         FAIR      73  73 100 CALM      30.02R
BRUNSWICK      CLEAR     73  72  94 CALM      30.03R
SAINT SIMONS   CLEAR     77  72  84 CALM      30.01S

$$

SCZ027-028-034-036>038-045-046-048>050-GAZ119-141-231100-
...LAKE AND SUPPLEMENTAL COASTAL OBSERVATIONS...

STATION/POSITION TIME  TEMP    WIND        PRES    WAVE   SWELL
                       AIR SEA DIR/SP/G            HT/PER HT/PER/DIR
                 (UTC) (F)     (DEG/KT/KT) (MB)    (FT/S) (FT/S/D)
WINYAH BAY       0945   78     250/  3     1015.0F
LAKE MURRAY      1000   80     240/  6/  9 1015.2S
ACE BASIN NERRS  0900   79        CALM     1016.0S
FORT PULASKI     1000   80 87  260/  3/  4 1016.9R
SAPELO ISLAND    1000   80     250/  3     1016.0S

$$

ANZ835-935-AMZ111-154-330-350-352-354-370-450-454-472-231100-
...C-MAN AND BUOY OBSERVATIONS...

STATION/POSITION TIME  TEMP    WIND        PRES    WAVE   SWELL
                       AIR SEA DIR/SP/G            HT/PER HT/PER/DIR
                 (UTC) (F)     (DEG/KT/KT) (MB)    (FT/S) (FT/S/D)
BUOY 41004       0950   84 86  230/ 10/ 12 1016.0R   3/ 8   2/140/ 8
BUOY 41008       0950   83 86  240/  8/ 10 1016.2R   2/ 8   2/ 80/ 8
FOLLY BEACH CMAN 1000   80     270/  1/  2 1016.6R
CAPERS NEARSHORE 1008   83 83  290/  6/ 10 1016.3R
FRIPP NEARSHORE  1008   83 85  260/ 10/ 14 1016.1R


STATION/POSITION TIME  TEMP    WIND        PRES    WAVE   SWELL
                       AIR SEA DIR/SP/G            HT/PER HT/PER/DIR
                 (UTC) (F)     (DEG/KT/KT) (MB)    (FT/S) (FT/S/D)
5E ST. MARYS GA  1001      86                N/A     2/ 9
FRYING PAN BUOY  1000   85 85  220/  8/ 10 1016.0R
BUOY 41025       0950   83 85  240/ 12/ 14 1016.0S   2/ 8   2/110/ 8
CAPE LOOKOUT NC  1000   81     220/  4/  5 1015.9R
BUOY 41002       0950   81 84   CALM  /  2 1016.9S   3/ 9   3/110/ 9
BUOY 41010       0920   83 86  310/  2/  2 1016.3F
ST AUGUSTINE FL  1000   77 86  300/  3/  4 1017.3S


$$




USA.gov is the U.S. government's official web portal to all federal, state and local government web resources and services.